EW8130 Weather Reports


time (UTC)temp
F
wind
direction
speed
knots
gust
knots
rain 1hr
in
rain 24hr
in
rain mn
in
humidity
%
barometer
mb
20260508064539 62 131 0.0 0.9 0.00 0.00 0.00 82 994.5
20260508063028 62 120 0.0 0.9 0.00 0.00 0.00 82 994.7
20260508061527 62 231 0.0 0.9 0.00 0.00 0.00 81 994.7
20260508060024 62 106 0.0 0.9 0.00 0.00 0.00 80 994.8
20260508054537 63 139 0.0 0.9 0.00 0.00 0.00 80 994.7
20260508053021 63 85 0.0 0.9 0.00 0.00 0.00 79 994.6
20260508051520 63 89 0.0 0.9 0.00 0.00 0.00 78 994.7
20260508050018 63 319 0.0 0.0 0.00 0.00 0.00 77 994.8
20260508044517 63 117 0.0 0.9 0.00 0.00 0.00 76 994.8
20260508043016 63 320 0.0 0.0 0.00 0.00 0.00 76 994.5
20260508041516 62 224 0.0 0.0 0.00 0.00 0.00 77 994.8
20260508040035 62 276 0.0 0.0 0.00 0.00 0.00 77 994.4
20260508034514 63 359 0.0 0.0 0.00 0.00 0.00 75 994.4
20260508033017 64 333 0.0 0.0 0.00 0.00 0.00 74 994.1
20260508031517 64 112 0.0 0.0 0.00 0.00 0.00 73 994.3
20260508030014 65 168 0.0 0.0 0.00 0.00 0.00 73 994.3
20260508024521 65 25 0.0 0.9 0.00 0.00 0.00 72 994.2
20260508023013 65 125 0.0 0.9 0.00 0.00 0.00 72 994.2
20260508021512 65 77 0.0 0.9 0.00 0.00 0.00 71 994.1
20260508020011 65 82 0.0 0.0 0.00 0.00 0.00 70 993.7
20260508014510 66 283 0.0 0.9 0.00 0.00 0.00 69 993.9
20260508013011 66 43 0.0 0.9 0.00 0.00 0.00 68 994.0
20260508011509 67 68 0.0 0.9 0.00 0.00 0.00 68 993.9
20260508010013 67 115 0.0 0.9 0.00 0.00 0.00 67 993.8
20260508004507 67 87 0.0 0.9 0.00 0.00 0.00 67 993.8
20260508003007 68 70 0.0 0.9 0.00 0.00 0.00 67 994.0
20260508001506 68 39 0.0 0.9 0.00 0.00 0.00 65 994.1
20260508000006 68 89 0.0 0.9 0.00 0.00 0.00 65 994.1
20260507234508 68 359 0.0 0.9 0.00 0.00 0.00 64 994.0
20260507233004 68 359 0.0 1.7 0.00 0.00 0.00 63 994.0
20260507231503 68 359 0.0 1.7 0.00 0.00 0.00 63 994.1
20260507230009 68 359 0.0 2.6 0.00 0.00 0.00 63 994.3
20260507224502 69 359 0.0 1.7 0.00 0.00 0.00 63 994.2
20260507223002 69 62 0.0 0.9 0.00 0.00 0.00 62 994.3
20260507221501 69 65 0.0 1.7 0.00 0.00 0.00 62 994.2
20260507214603 70 359 0.0 1.7 0.00 0.00 0.00 60 994.4
20260507213058 71 359 0.0 0.9 0.00 0.00 0.00 58 994.8
20260507211602 72 359 0.0 2.6 0.00 0.00 0.00 56 995.0
20260507210114 72 19 0.0 0.9 0.00 0.00 0.00 56 994.9
20260507204554 73 79 0.0 0.9 0.00 0.00 0.00 55 994.9
20260507203055 73 295 0.0 0.9 0.00 0.00 0.00 54 994.8
20260507201555 72 359 0.0 0.9 0.00 0.00 0.00 54 995.3
20260507200056 73 44 0.0 1.7 0.00 0.00 0.00 52 995.5
20260507194556 73 359 0.0 4.3 0.00 0.00 0.00 52 995.7
20260507193048 73 11 0.0 7.8 0.00 0.00 0.00 51 995.9
20260507191549 73 359 0.0 2.6 0.00 0.00 0.00 51 996.3
20260507190050 72 303 0.0 0.9 0.00 0.00 0.00 51 996.2
20260507184546 72 293 0.0 0.9 0.00 0.00 0.00 52 996.3
20260507183102 71 359 0.0 0.9 0.00 0.00 0.00 54 996.3
20260507181540 69 359 0.0 8.7 0.00 0.00 0.00 53 996.5
20260507180037 69 293 0.0 5.2 0.00 0.00 0.00 57 996.9
20260507174536 68 291 0.0 0.9 0.00 0.00 0.00 60 996.9
20260507173044 68 359 0.0 4.3 0.00 0.00 0.00 59 997.2
20260507171534 69 10 0.0 0.9 0.00 0.00 0.00 59 997.6
20260507170034 69 359 0.0 0.0 0.00 0.00 0.00 59 998.0
20260507164544 68 359 0.0 0.9 0.00 0.00 0.00 59 998.2
20260507163030 69 308 0.0 1.7 0.00 0.00 0.00 60 998.3
20260507161527 67 324 0.0 0.9 0.00 0.00 0.00 62 998.4
20260507160028 66 301 0.0 0.9 0.00 0.00 0.00 62 998.3
20260507154523 66 303 0.0 0.0 0.00 0.00 0.00 64 998.2
20260507153024 65 359 0.0 0.0 0.00 0.00 0.00 67 998.5
20260507151517 64 359 0.0 0.9 0.00 0.00 0.00 68 998.7
20260507150017 63 359 0.0 1.7 0.00 0.00 0.00 69 998.8
20260507144513 62 359 0.0 0.9 0.00 0.00 0.00 73 998.8
20260507143019 61 359 0.0 0.0 0.00 0.00 0.00 74 998.7
20260507141515 60 304 0.0 0.0 0.00 0.00 0.00 77 999.0
20260507140006 59 248 0.0 0.9 0.00 0.00 0.00 78 998.9
20260507134502 58 359 0.0 0.9 0.00 0.00 0.00 81 999.3
20260507133001 58 283 0.0 0.9 0.00 0.00 0.00 83 999.3
20260507131607 57 264 0.0 0.9 0.00 0.00 0.00 87 999.3
20260507130100 55 223 0.0 0.9 0.00 0.00 0.00 90 999.3
20260507124605 54 208 0.0 0.9 0.00 0.00 0.00 90 999.2
20260507123057 53 211 0.0 0.9 0.00 0.00 0.00 90 998.8
20260507121556 53 198 0.0 0.9 0.00 0.00 0.00 90 999.0
20260507120056 53 249 0.0 0.9 0.00 0.00 0.00 89 998.8
20260507114608 53 233 0.0 0.9 0.00 0.00 0.00 89 998.7
20260507113119 53 297 0.0 0.9 0.00 0.00 0.00 89 998.4
20260507111556 53 270 0.0 0.0 0.00 0.00 0.00 89 998.3
20260507110050 53 229 0.0 0.9 0.00 0.00 0.00 87 998.2
20260507104546 54 260 0.0 0.0 0.00 0.00 0.00 87 997.6
20260507103050 53 256 0.0 0.0 0.00 0.00 0.00 87 997.2
20260507101546 53 280 0.0 0.0 0.00 0.00 0.00 87 996.9
20260507100041 53 314 0.0 0.0 0.00 0.00 0.00 87 997.0
20260507094541 53 325 0.0 0.0 0.00 0.00 0.00 87 996.8
20260507093036 53 314 0.0 0.0 0.00 0.00 0.00 87 996.8
20260507091537 54 304 0.0 0.0 0.00 0.00 0.00 87 996.7
20260507090033 54 318 0.0 0.0 0.00 0.00 0.00 87 996.5
20260507084541 54 292 0.0 0.0 0.00 0.00 0.00 87 996.7
20260507083031 54 293 0.0 0.0 0.00 0.00 0.00 88 996.3
20260507081536 54 310 0.0 0.9 0.00 0.00 0.00 89 996.4
20260507080028 54 304 0.0 0.9 0.00 0.00 0.00 89 996.2
20260507074526 54 305 0.0 0.9 0.00 0.00 0.00 90 995.9
20260507073023 55 313 0.0 0.0 0.00 0.00 0.00 89 995.7
20260507071523 55 318 0.0 0.9 0.00 0.00 0.00 89 995.9
20260507070021 55 326 0.0 5.2 0.00 0.00 0.00 88 995.9